Temperature
9 8 8 8 7 7 7 7 7 6 6 6 6 5 5 5 5 4 4 3 3 3 2 2 2 1 1 -0 -1 -2 -3 -4 -4 -4 -4 -4 -4 -4 -3 -3 -3 -3 -3
8 8 7 7 7 7 6 6 6 6 5 5 5 5 5 5 4 4 3 3 3 2 2 2 1 1 1 -0 -1 -2 -3 -4 -4 -5 -5 -5 -5 -5 -4 -4 -4 -4 -3
7 7 7 7 6 6 6 5 5 5 5 4 4 4 4 4 4 4 3 3 2 2 2 1 1 1 0 -0 -1 -2 -3 -4 -4 -5 -5 -5 -6 -6 -5 -5 -5 -4 -4
7 6 6 6 6 5 5 5 4 4 4 4 3 3 3 3 3 3 3 2 2 1 1 1 1 0 -0 -0 -1 -2 -3 -4 -5 -5 -6 -6 -6 -6 -6 -6 -6 -5 -4
6 6 5 5 5 5 4 4 4 3 3 3 3 2 2 2 2 2 2 2 1 1 1 1 0 -0 -1 -2 -2 -3 -3 -4 -5 -6 -6 -7 -7 -7 -7 -6 -6 -5 -5
5 5 5 4 4 4 4 3 3 3 2 2 2 1 1 1 1 1 0 0 0 0 0 0 -0 -1 -2 -3 -3 -4 -4 -5 -5 -6 -7 -7 -7 -7 -7 -7 -7 -7 -6
4 4 4 3 3 3 3 2 2 2 1 1 1 0 0 0 0 0 -0 -1 -1 -1 -1 -1 -1 -1 -2 -2 -3 -4 -4 -4 -5 -6 -6 -7 -7 -6 -7 -7 -7 -7 -6
4 3 3 2 2 2 1 1 1 0 -0 -0 -0 -0 -1 -0 -0 -1 -1 -1 -1 -1 -1 -2 -2 -2 -3 -3 -3 -4 -4 -4 -5 -5 -6 -6 -6 -6 -6 -7 -7 -7 -7
3 2 2 1 1 1 0 -0 -0 -1 -1 -1 -1 -1 -1 -1 -1 -1 -2 -2 -2 -2 -2 -2 -3 -3 -3 -4 -5 -5 -5 -5 -5 -6 -6 -6 -6 -6 -6 -7 -7 -7 -8
2 1 1 0 -0 -0 -1 -1 -1 -2 -2 -2 -2 -2 -2 -2 -2 -2 -2 -3 -3 -2 -2 -3 -3 -3 -4 -4 -5 -5 -6 -6 -6 -6 -6 -6 -6 -6 -6 -6 -6 -7 -8
1 0 0 -0 -1 -1 -2 -2 -2 -2 -2 -3 -3 -2 -2 -2 -3 -3 -3 -3 -3 -3 -3 -3 -3 -4 -4 -5 -5 -5 -5 -6 -6 -6 -7 -7 -6 -6 -6 -6 -6 -7 -7
-0 -1 -1 -1 -2 -2 -2 -3 -3 -3 -3 -3 -3 -3 -3 -3 -3 -3 -3 -3 -4 -4 -4 -4 -4 -4 -5 -5 -5 -5 -5 -6 -6 -7 -7 -7 -7 -6 -6 -6 -7 -7 -7
-1 -2 -2 -2 -2 -3 -3 -3 -4 -4 -4 -4 -4 -4 -4 -3 -3 -3 -4 -4 -4 -4 -4 -5 -5 -5 -5 -5 -5 -5 -5 -5 -6 -6 -7 -6 -6 -6 -6 -7 -7 -7 -7
-2 -3 -3 -3 -3 -4 -4 -4 -5 -5 -5 -5 -4 -4 -4 -4 -4 -4 -4 -4 -4 -4 -4 -5 -5 -5 -5 -5 -6 -6 -6 -6 -6 -6 -6 -6 -6 -6 -7 -7 -7 -7 -8
-3 -4 -4 -4 -4 -5 -5 -5 -5 -5 -5 -5 -4 -4 -4 -4 -4 -4 -4 -4 -4 -4 -5 -5 -5 -5 -5 -6 -6 -6 -6 -6 -6 -6 -6 -6 -6 -7 -7 -7 -8 -8 -8
-4 -4 -5 -5 -5 -5 -5 -5 -5 -5 -5 -4 -4 -4 -4 -4 -4 -4 -4 -4 -4 -5 -5 -5 -5 -5 -6 -6 -6 -6 -6 -6 -6 -6 -6 -6 -7 -7 -7 -8 -8 -8 -9
-5 -5 -5 -6 -6 -6 -6 -6 -6 -5 -4 -4 -4 -4 -4 -4 -4 -4 -4 -5 -5 -5 -5 -5 -6 -6 -6 -6 -6 -6 -6 -6 -6 -6 -6 -7 -7 -7 -8 -8 -8 -9 -9
-5 -6 -6 -6 -6 -6 -6 -6 -6 -6 -5 -5 -4 -4 -5 -5 -5 -5 -5 -5 -5 -5 -6 -6 -6 -6 -6 -6 -6 -6 -6 -6 -6 -7 -7 -7 -7 -8 -8 -9 -9 -9 -10
-6 -6 -6 -6 -6 -6 -6 -6 -6 -6 -6 -5 -5 -5 -5 -5 -5 -5 -5 -5 -6 -6 -6 -6 -7 -7 -7 -7 -7 -7 -7 -7 -7 -7 -7 -7 -8 -8 -9 -9 -9 -10 -10
-6 -6 -6 -6 -6 -6 -6 -6 -6 -6 -6 -6 -6 -5 -5 -5 -5 -5 -5 -6 -6 -6 -7 -7 -7 -7 -7 -7 -7 -7 -7 -7 -7 -7 -7 -8 -8 -9 -9 -9 -10 -10 -11
-6 -6 -6 -6 -6 -6 -6 -6 -6 -6 -6 -6 -6 -6 -6 -6 -6 -6 -6 -6 -7 -7 -7 -7 -7 -7 -7 -7 -7 -7 -7 -7 -7 -8 -8 -8 -8 -9 -9 -10 -10 -10 -11
-7 -7 -7 -7 -6 -6 -6 -6 -6 -6 -6 -6 -6 -6 -6 -6 -6 -6 -7 -7 -7 -7 -7 -7 -7 -7 -7 -7 -7 -7 -7 -7 -8 -8 -8 -8 -9 -9 -10 -10 -10 -11 -11
-7 -7 -7 -7 -6 -6 -6 -6 -6 -7 -7 -7 -7 -7 -7 -7 -7 -7 -7 -7 -7 -7 -7 -7 -7 -7 -7 -7 -7 -7 -8 -8 -8 -8 -9 -9 -9 -10 -10 -10 -11 -11 -11
-7 -7 -7 -7 -7 -6 -7 -7 -7 -7 -7 -7 -7 -7 -7 -7 -7 -7 -7 -7 -7 -7 -7 -7 -7 -7 -7 -7 -7 -8 -8 -8 -8 -9 -9 -9 -10 -10 -10 -11 -11 -11 -12
-7 -7 -7 -7 -7 -7 -7 -7 -7 -7 -7 -7 -7 -7 -7 -7 -7 -7 -7 -7 -7 -7 -7 -7 -7 -7 -8 -8 -8 -8 -8 -9 -9 -9 -9 -10 -10 -10 -11 -11 -11 -11 -12
-7 -7 -7 -7 -7 -7 -7 -7 -7 -7 -7 -7 -8 -8 -8 -8 -7 -7 -7 -7 -7 -7 -7 -8 -8 -8 -8 -8 -8 -8 -9 -9 -9 -9 -10 -10 -10 -11 -11 -11 -11 -12 -12
Wind_Speed
8 7 8 9 9 8 9 11 11 11 11 11 12 13 14 15 15 16 18 17 20 20 18 19 22 17 16 14 13 13 15 14 21 12 7 8 10 10 11 14 17 18 19
8 8 8 9 9 9 10 11 10 11 11 11 11 12 13 14 14 16 18 18 19 20 20 20 21 17 19 16 15 16 16 16 18 19 8 9 12 11 10 9 11 16 16
8 8 9 9 9 10 10 11 10 10 11 11 10 12 13 13 13 15 17 17 18 19 19 20 20 18 20 17 17 17 15 16 15 17 14 9 9 9 9 10 12 9 14
8 8 9 10 10 10 10 11 11 10 11 11 12 12 12 13 13 14 14 16 17 17 17 18 19 19 20 19 18 18 16 15 14 15 14 10 10 8 8 11 12 10 12
9 9 10 10 10 10 11 11 11 11 11 12 12 13 12 11 12 12 13 14 15 16 16 17 18 22 26 22 17 14 14 15 14 14 15 12 12 9 10 10 13 10 10
9 10 11 11 11 11 11 11 11 11 12 11 12 13 13 12 20 24 19 13 13 15 16 16 17 22 27 32 33 30 24 18 17 16 15 16 14 14 12 11 11 10 9
10 11 11 11 12 12 12 12 12 12 11 12 12 13 14 16 24 25 25 16 12 13 14 14 14 15 22 16 24 31 30 34 30 20 19 18 15 14 13 14 14 12 12
11 11 11 12 12 13 12 13 13 12 11 12 13 13 14 16 24 25 25 16 12 12 13 14 14 14 15 16 14 16 17 18 21 20 18 16 15 12 13 15 14 13 10
12 12 12 12 13 14 14 14 13 13 13 12 12 13 14 16 23 25 24 11 10 11 11 12 13 14 22 26 17 16 16 16 24 30 27 24 27 28 21 13 13 12 12
13 13 13 13 13 15 15 15 13 12 14 13 13 13 14 15 21 24 23 9 10 10 9 10 18 19 21 24 16 15 17 14 12 13 18 21 19 21 28 19 14 13 9
14 14 14 13 13 14 14 13 14 14 14 13 14 13 13 15 19 22 23 10 9 9 9 8 9 20 22 23 21 15 19 15 10 12 12 12 11 11 11 12 11 11 11
14 14 14 13 13 13 14 14 13 14 15 14 13 13 10 11 16 18 22 21 18 11 9 8 10 19 21 23 19 19 24 21 10 11 12 12 11 11 10 11 11 11 11
15 15 14 14 12 12 13 15 14 13 12 13 12 13 12 9 12 21 22 22 22 13 9 15 17 20 20 16 20 22 19 13 11 12 12 12 10 9 8 8 8 9 10
16 16 14 14 14 12 11 12 12 13 13 13 13 13 12 11 10 9 9 11 15 13 11 14 18 18 14 13 13 12 9 9 10 10 10 9 7 8 8 8 7 7 7
16 15 14 13 14 14 12 12 14 13 15 16 13 13 14 14 15 21 17 10 8 10 9 6 5 6 6 6 7 7 7 7 9 8 8 8 8 8 8 7 7 6 7
16 14 13 13 13 13 14 15 19 20 25 26 24 22 16 20 26 26 24 23 21 19 12 7 7 7 7 7 7 7 7 8 7 7 7 8 8 8 7 6 6 7 8
16 16 13 13 13 14 14 14 16 18 21 23 24 24 23 24 25 24 23 21 19 17 9 6 6 7 7 7 7 7 7 7 7 7 7 7 7 7 6 6 6 7 8
15 17 17 13 13 13 14 14 14 15 16 14 17 22 23 24 23 22 20 15 9 8 5 6 6 6 6 6 7 7 6 6 6 6 6 6 6 6 6 6 7 7 8
15 13 13 13 13 13 13 14 14 15 14 14 13 15 20 20 20 18 15 7 7 6 5 5 5 6 5 6 6 6 6 6 6 6 6 6 6 6 6 7 7 11 10
13 21 20 14 13 13 13 13 13 13 13 13 13 13 12 12 9 9 7 5 5 5 5 5 5 5 5 5 5 5 5 5 6 6 6 6 6 6 7 7 7 7 7
13 16 22 17 13 13 13 13 13 13 13 12 12 14 19 11 9 8 7 5 4 5 5 5 4 4 4 4 4 5 5 5 5 5 5 5 5 5 6 6 6 7 7
13 13 13 13 13 13 14 12 12 12 13 13 12 12 17 10 8 7 6 5 4 4 4 4 4 3 3 4 4 4 5 4 5 5 5 5 5 5 5 6 6 7 7
13 14 14 13 13 16 15 11 11 12 12 12 11 10 9 8 7 6 5 5 4 4 3 2 2 2 2 2 3 4 4 5 5 5 5 5 5 5 5 6 8 8 8
12 13 14 13 13 12 12 12 11 11 11 11 10 9 8 7 6 6 5 4 3 3 2 1 0 1 2 1 1 2 2 3 3 4 6 6 6 6 6 6 7 9 9
12 13 13 12 12 12 11 11 11 11 10 10 9 9 7 6 6 5 4 3 3 3 3 2 1 1 1 1 1 2 4 6 5 4 5 5 6 7 7 7 8 8 9
12 13 12 12 11 11 11 11 11 11 10 9 8 7 7 6 5 4 4 3 3 3 3 2 2 2 2 1 3 5 6 7 8 9 5 4 6 7 7 8 9 9 10
Wind_Direction
310 302 297 291 287 281 273 271 270 270 269 266 264 260 255 251 245 241 241 238 237 239 234 234 236 231 232 229 225 225 227 229 250 251 203 202 203 217 231 226 226 234 240
305 306 304 300 299 293 286 282 280 277 274 270 268 266 262 258 251 245 245 242 240 240 238 236 237 233 232 229 227 228 229 227 238 252 227 209 214 216 222 226 232 236 234
307 310 310 307 304 298 293 292 289 284 282 280 274 270 268 265 258 251 248 247 243 242 239 237 237 232 233 230 228 229 230 230 231 243 243 220 221 220 225 233 237 237 241
310 311 308 304 299 295 293 293 290 287 286 284 280 275 272 269 264 259 254 251 249 246 242 239 237 232 233 231 230 229 227 228 228 235 241 231 227 216 218 233 241 235 241
310 309 303 299 297 295 294 292 289 286 284 281 282 282 277 273 268 263 256 253 251 251 247 243 240 239 237 236 234 229 223 227 227 232 238 235 229 220 222 223 237 240 239
305 301 298 299 299 297 295 292 290 288 286 283 280 280 280 279 282 283 279 260 251 250 251 248 245 248 248 247 245 239 227 222 224 228 233 232 229 224 225 225 230 234 244
300 298 298 299 298 296 296 295 292 290 286 284 282 279 279 280 287 289 287 282 261 253 249 249 249 244 246 240 246 248 244 236 227 222 230 229 226 221 220 226 228 228 236
300 298 297 298 297 296 296 294 292 288 286 285 284 282 282 284 291 293 292 286 272 259 250 246 246 245 238 236 233 236 238 240 238 233 229 227 223 219 215 223 229 236 242
302 299 298 297 297 298 297 296 294 293 291 286 284 285 285 287 292 295 295 282 274 266 256 248 247 245 248 248 241 236 237 237 242 240 238 232 227 227 222 222 226 231 242
302 300 298 296 295 296 296 296 295 292 290 289 286 283 283 284 290 295 296 283 276 273 264 251 256 255 253 252 244 236 237 232 225 236 243 247 241 237 233 223 218 226 237
301 301 299 296 294 295 295 295 296 295 293 291 289 287 283 284 291 296 297 291 274 273 270 260 250 261 261 257 250 238 238 230 217 222 228 232 234 235 234 232 223 224 236
302 301 299 297 297 301 298 298 296 296 296 295 294 293 287 284 290 294 296 294 291 278 270 261 256 263 262 260 256 246 241 237 224 220 224 225 225 226 226 225 225 226 232
304 302 302 301 297 296 297 299 300 298 296 296 295 296 295 287 287 295 297 296 294 289 272 272 271 269 266 263 258 252 244 233 222 220 221 222 219 216 210 213 220 226 232
305 306 305 304 303 299 295 295 297 297 296 296 296 295 296 293 289 285 281 286 288 286 282 278 278 275 269 261 256 253 241 230 223 223 221 216 203 201 207 207 215 218 236
306 305 305 302 302 303 299 296 296 289 289 294 294 293 296 296 294 296 297 287 277 270 274 260 251 252 246 243 241 237 227 226 229 218 214 207 202 203 209 203 208 212 229
310 309 307 305 304 303 304 303 297 295 297 298 297 297 295 294 299 301 301 298 297 297 289 263 249 238 236 238 236 229 221 219 218 212 208 203 201 204 209 205 206 217 236
306 307 307 305 304 305 304 304 305 305 302 302 302 302 301 302 302 302 301 299 296 296 287 270 256 240 233 230 228 223 219 211 202 202 204 202 200 203 209 215 217 226 239
305 307 308 303 302 302 301 300 301 303 307 306 305 305 306 306 305 305 305 305 294 285 262 263 260 247 232 226 223 219 211 200 199 204 204 201 200 204 214 221 223 229 243
307 306 304 302 301 301 300 301 301 300 301 304 306 307 308 309 308 306 307 290 281 276 265 260 258 247 233 225 219 211 203 200 200 199 201 200 200 204 218 224 228 245 252
306 307 311 307 305 304 304 303 303 303 303 304 306 307 309 308 305 307 301 284 277 273 267 264 259 246 231 219 209 202 199 201 198 199 201 201 202 207 220 225 231 242 249
306 307 310 308 304 302 302 302 303 304 305 306 306 307 312 313 311 308 303 291 280 277 272 265 257 245 224 205 198 196 197 199 197 198 201 203 204 213 220 226 234 243 253
305 305 306 305 305 305 305 306 307 308 309 308 309 311 317 315 307 304 301 295 287 280 273 264 256 231 210 200 195 195 200 204 202 200 203 207 211 220 226 233 241 248 253
306 308 309 307 306 308 311 310 310 308 307 308 310 313 314 312 309 307 307 306 303 300 295 276 246 217 205 198 191 192 202 211 205 197 203 213 220 227 231 239 246 252 257
312 312 310 311 310 310 312 313 312 311 312 312 314 314 314 313 314 316 316 317 318 319 327 334 291 200 194 187 186 195 205 208 196 203 208 219 228 235 238 245 251 254 259
314 312 312 312 311 313 314 313 312 312 313 316 318 320 320 321 321 321 323 325 330 340 352 357 1 350 237 214 216 233 243 244 242 231 217 222 232 238 245 251 257 260 260
314 313 312 311 311 312 314 314 313 315 316 318 319 317 317 319 319 319 322 327 335 343 347 348 347 339 317 293 268 269 272 270 267 262 244 229 235 246 250 258 259 261 263
Height
1472 1468 1464 1460 1457 1452 1448 1444 1440 1436 1432 1427 1423 1419 1416 1413 1410 1407 1404 1403 1401 1399 1399 1398 1397 1400 1400 1401 1403 1404 1405 1405 1401 1397 1404 1407 1410 1414 1417 1418 1419 1420 1421
1467 1463 1459 1455 1450 1446 1441 1437 1433 1428 1424 1419 1415 1410 1406 1403 1400 1396 1393 1391 1389 1387 1387 1387 1385 1388 1387 1389 1390 1390 1391 1392 1391 1388 1391 1394 1397 1401 1405 1407 1408 1409 1410
1462 1457 1453 1449 1444 1439 1434 1429 1425 1420 1415 1411 1406 1401 1397 1393 1389 1385 1382 1379 1377 1375 1375 1374 1373 1375 1374 1376 1377 1377 1378 1380 1380 1379 1379 1383 1386 1389 1392 1393 1395 1397 1398
1457 1452 1447 1442 1437 1432 1427 1422 1417 1412 1406 1401 1396 1391 1387 1382 1378 1374 1371 1367 1365 1363 1362 1361 1361 1361 1361 1363 1364 1364 1366 1367 1368 1368 1369 1372 1374 1377 1380 1380 1382 1384 1386
1451 1446 1441 1436 1431 1425 1419 1414 1408 1403 1398 1392 1386 1381 1377 1372 1368 1364 1359 1356 1353 1350 1349 1349 1348 1348 1348 1350 1350 1350 1353 1354 1356 1357 1358 1361 1363 1365 1366 1369 1371 1373 1374
1445 1440 1434 1429 1423 1417 1411 1405 1399 1393 1388 1382 1377 1371 1366 1362 1358 1354 1350 1345 1341 1339 1337 1336 1336 1336 1336 1338 1339 1340 1341 1341 1343 1345 1346 1348 1349 1353 1357 1359 1361 1363 1363
1438 1433 1427 1421 1414 1408 1402 1396 1390 1384 1378 1372 1367 1362 1356 1352 1348 1344 1340 1336 1331 1328 1326 1325 1324 1323 1324 1324 1325 1328 1330 1331 1331 1333 1333 1334 1339 1343 1347 1349 1351 1351 1352
1431 1425 1419 1413 1406 1400 1393 1387 1381 1375 1368 1362 1357 1352 1346 1342 1338 1334 1329 1325 1321 1318 1316 1314 1313 1312 1313 1313 1313 1313 1315 1318 1321 1323 1321 1323 1329 1333 1336 1339 1341 1342 1343
1423 1417 1411 1405 1398 1391 1384 1378 1372 1365 1358 1353 1347 1342 1337 1332 1329 1324 1320 1315 1310 1307 1306 1305 1303 1301 1302 1303 1303 1301 1302 1304 1308 1312 1314 1316 1319 1323 1326 1329 1331 1332 1331
1415 1409 1403 1397 1390 1383 1376 1369 1362 1356 1349 1343 1337 1333 1328 1323 1319 1315 1311 1306 1301 1298 1296 1295 1294 1292 1292 1292 1292 1292 1291 1293 1297 1300 1303 1307 1310 1313 1317 1318 1320 1321 1321
1408 1401 1394 1388 1382 1374 1367 1360 1353 1346 1339 1333 1328 1324 1319 1315 1310 1306 1303 1298 1294 1290 1287 1285 1284 1284 1283 1283 1283 1282 1282 1286 1288 1290 1293 1296 1299 1302 1305 1309 1311 1312 1312
1399 1392 1385 1379 1372 1365 1358 1350 1344 1337 1330 1324 1319 1314 1310 1306 1303 1298 1294 1291 1287 1283 1279 1277 1276 1275 1274 1274 1274 1274 1276 1278 1280 1282 1284 1286 1289 1291 1295 1298 1301 1302 1303
1390 1382 1375 1369 1362 1356 1349 1341 1334 1328 1322 1316 1311 1306 1301 1298 1294 1291 1287 1283 1279 1276 1272 1270 1268 1267 1266 1265 1265 1266 1268 1270 1272 1274 1275 1277 1280 1284 1287 1290 1291 1293 1294
1381 1373 1366 1359 1352 1346 1340 1333 1327 1320 1315 1309 1304 1299 1294 1290 1286 1282 1278 1275 1271 1268 1265 1262 1260 1259 1258 1257 1258 1259 1260 1262 1264 1266 1268 1271 1274 1276 1279 1281 1283 1284 1284
1372 1365 1358 1351 1344 1336 1330 1325 1319 1313 1310 1304 1298 1293 1288 1282 1279 1276 1272 1268 1264 1260 1257 1254 1252 1251 1251 1250 1251 1251 1253 1255 1257 1259 1262 1264 1266 1269 1271 1273 1274 1275 1274
1364 1357 1350 1342 1335 1329 1322 1315 1310 1307 1301 1297 1292 1287 1281 1277 1272 1268 1264 1260 1257 1254 1251 1247 1245 1244 1244 1244 1244 1245 1247 1249 1251 1253 1255 1257 1259 1261 1263 1265 1266 1266 1266
1358 1350 1342 1335 1329 1322 1315 1309 1301 1296 1293 1288 1283 1279 1274 1269 1264 1260 1256 1252 1249 1247 1244 1241 1239 1238 1237 1238 1239 1239 1241 1243 1245 1247 1249 1251 1253 1255 1256 1257 1258 1258 1257
1351 1344 1336 1329 1322 1316 1310 1303 1297 1291 1284 1278 1275 1271 1266 1261 1257 1252 1248 1245 1241 1239 1237 1235 1233 1232 1232 1232 1233 1234 1236 1238 1240 1242 1243 1245 1247 1248 1249 1250 1250 1250 1250
1344 1336 1329 1322 1316 1310 1304 1298 1292 1286 1280 1273 1267 1262 1259 1254 1249 1246 1242 1238 1235 1233 1231 1229 1228 1227 1227 1228 1228 1229 1231 1233 1235 1236 1238 1239 1241 1242 1242 1243 1243 1243 1242
1337 1330 1324 1317 1310 1304 1298 1292 1286 1280 1274 1268 1262 1257 1252 1247 1243 1239 1236 1233 1230 1228 1226 1224 1223 1223 1223 1224 1225 1226 1227 1229 1230 1231 1233 1234 1235 1236 1236 1236 1236 1236 1235
1330 1323 1317 1311 1304 1298 1292 1286 1281 1275 1269 1263 1258 1253 1248 1243 1239 1235 1231 1228 1226 1224 1222 1221 1220 1220 1220 1221 1221 1222 1224 1225 1226 1227 1228 1229 1229 1229 1230 1230 1229 1229 1228
1324 1317 1311 1305 1299 1293 1287 1281 1276 1270 1264 1258 1252 1248 1244 1239 1235 1231 1228 1225 1223 1221 1219 1218 1217 1217 1218 1218 1219 1220 1221 1221 1222 1223 1223 1224 1224 1224 1224 1223 1223 1222 1221
1318 1312 1305 1299 1293 1288 1282 1276 1271 1265 1259 1254 1249 1244 1239 1235 1232 1228 1225 1223 1221 1219 1218 1217 1216 1216 1216 1216 1217 1217 1218 1218 1219 1219 1219 1218 1218 1218 1218 1217 1216 1215 1214
1313 1307 1300 1294 1288 1283 1277 1271 1266 1261 1255 1250 1246 1241 1237 1233 1229 1226 1224 1222 1220 1218 1217 1216 1215 1215 1215 1215 1215 1215 1215 1215 1215 1215 1214 1214 1213 1213 1212 1211 1210 1209 1207
1307 1301 1295 1289 1284 1278 1273 1267 1262 1257 1252 1247 1243 1238 1234 1231 1228 1225 1223 1221 1219 1218 1216 1215 1215 1214 1214 1213 1213 1213 1212 1212 1211 1211 1210 1209 1208 1207 1206 1205 1203 1202 1200
1302 1296 1290 1285 1279 1274 1269 1263 1258 1254 1249 1245 1240 1236 1233 1229 1227 1224 1222 1220 1219 1217 1216 1215 1214 1213 1213 1212 1211 1210 1209 1208 1208 1207 1206 1205 1203 1202 1200 1198 1197 1195 1193